Regional Weather Roundup
Issued by NWS

Home | Current Version | Previous Version | Graphics & Text | Print | Product List | Glossary On
Versions: 1 2 3 4 5 6 7 8 9 10 11 12 13 14 15 16 17 18 19 20 21 22 23 24 25 26 27 28 29 30 31 32 33 34 35 36 37 38 39 40 41 42 43 44 45 46 47 48 49 50
109
ASUS43 KLMK 120810
RWRKY
KENTUCKY REGIONAL WEATHER ROUNDUP
NATIONAL WEATHER SERVICE LOUISVILLE KY
300 AM EST FRI FEB 12 2016

NOTE "FAIR" INDICATES FEW OR NO CLOUDS BELOW 12,000 FEET
WITH NO SIGNIFICANT WEATHER AND/OR OBSTRUCTIONS TO VISIBILITY.

KYZ001>023-026-027-061>063-070>075-120900-
WESTERN AND SOUTH CENTRAL KENTUCKY

CITY           SKY/WX    TMP DP  RH WIND       PRES   REMARKS
PADUCAH        CLOUDY    31  17  56 E7        30.20F WCI  24
HENDERSON      CLOUDY    28  14  54 CALM      30.23S
OWENSBORO      CLOUDY    28  16  61 CALM      30.22F
HOPKINSVILLE   CLOUDY    31  17  57 N5        30.21R WCI  26
BOWLING GREEN  CLOUDY    31  18  58 E6        30.18F WCI  25
GLASGOW        MOCLDY    28  19  69 E6        30.18F WCI  22
$$

KYZ024-025-028>034-038-045-046-053-120900-
NORTH CENTRAL KENTUCKY

CITY           SKY/WX    TMP DP  RH WIND       PRES   REMARKS
LOUISVILLE/SDF CLOUDY    27  10  49 E6        30.22F WCI  20
LOUISVILLE/LOU CLOUDY    26  11  52 E3        30.23F
FORT KNOX      CLOUDY    25  12  56 NE6       30.18F WCI  18
$$

KYZ035>037-039>044-047>052-055>060-089>105-120900-
NORTHEAST KENTUCKY

CITY           SKY/WX    TMP DP  RH WIND       PRES   REMARKS
LEXINGTON      CLOUDY    24  12  60 E3        30.20F
COVINGTON      CLOUDY    20   8  60 E3        30.21F
FRANKFORT      CLOUDY    24  12  60 E3        30.21F
$$

KYZ054-064>069-076>088-106>120-120900-
SOUTHEAST KENTUCKY

CITY           SKY/WX    TMP DP  RH WIND       PRES   REMARKS
JACKSON        CLOUDY    21   9  59 CALM      30.18F
LONDON         CLOUDY    24  12  60 NE5       30.18F WCI  18
SOMERSET       CLOUDY    25  14  63 CALM      30.20F
MIDDLESBORO    CLOUDY    28  21  75 CALM      30.18F
MONTICELLO     NOT AVBL
$$





USA.gov is the U.S. government's official web portal to all federal, state and local government web resources and services.